Regional Weather Roundup
Issued by NWS Sterling, VA

Home | Current Version | Previous Version | Graphics & Text | Print | Product List | Glossary On
Versions: 1 2 3 4 5 6 7 8 9 10 11 12 13 14 15 16 17 18 19 20 21 22 23 24 25 26 27
000
ASUS41 KLWX 240710
RWRLWX

REGIONAL WEATHER ROUNDUP
NATIONAL WEATHER SERVICE BALTIMORE MD/WASHINGTON DC
300 AM EDT FRI OCT 24 2014

Note: "FAIR" indicates few or no clouds below 12,000 feet
with no significant weather and/or obstructions to visibility.
 TC=TEMPERATURE CELSIUS

 * =Non NWS site. Station does not report precipitation (e.g. rain,
    snow, etc.), thunder, or fog.

DCZ001-MDZ009-015-VAZ040>042-051-053>054-240800-
WASHINGTON METRO

CITY           SKY/WX    TMP DP  RH WIND       PRES   REMARKS
WASHINGTON NAT CLEAR     59  39  47 NW13      29.93R
DULLES         PTCLDY    53  41  63 NW12      29.93F
ANDREWS AFB    CLEAR     56  40  56 NW14G21   29.91R
FT BELVOIR     CLEAR     55  41  58 W9        29.93S
QUANTICO       CLEAR     56  41  57 NW8       29.95S
COLLEGE PARK*  CLEAR     55  41  58 W6        29.91R
LEESBURG*      CLEAR     54  45  71 NW10G18   29.94F
MANASSAS*      CLEAR     55  43  62 N7        29.93F
GAITHERSBURG*  CLEAR     54  39  58 NW13G18   29.95S

$$

MDZ006>007-011-014-240800-
BALTIMORE METRO

CITY           SKY/WX    TMP DP  RH WIND       PRES   REMARKS
BWI AIRPORT    PTCLDY    54  40  59 W12       29.88S
MD SCIENCE CTR   N/A     57  39  51 MISG      29.88R
MARTIN STATE   CLEAR     55  43  62 CALM      29.88R
ANNAPOLIS      CLEAR     57  41  55 NW7       29.88R
FORT MEADE*    CLEAR     52  41  66 W6        29.92S

$$

MDZ012-015-019>023-240800-
MARYLAND EASTERN SHORE

CITY           SKY/WX    TMP DP  RH WIND       PRES   REMARKS
OCEAN CITY     PTCLDY    52  45  77 NW7       29.84S
SALISBURY      CLEAR     54  46  74 W3        29.86R
BAY BRIDGE AP*   N/A     55  41  58 NW13      29.88R
CAMBRIDGE*     CLEAR     55  46  71 W7        29.87R
EASTON*        CLEAR     55  48  76 CALM      29.90S

$$

MDZ017>025-240800-
SOUTHERN MARYLAND

CITY           SKY/WX    TMP DP  RH WIND       PRES   REMARKS
PATUXENT RIVER CLEAR     54  41  61 W14       29.89R
ST INIGOES     CLEAR     57  41  55 W12       29.89R
LEONARDTOWN*   CLEAR     52  41  66 W6        29.91S

$$

MDZ003>005-240800-
NORTH CENTRAL MARYLAND

CITY           SKY/WX    TMP DP  RH WIND       PRES   REMARKS
FREDERICK*     PTCLDY    55  41  58 NW7       29.97R
HAGERSTOWN APT CLEAR     52  42  69 NW13      29.95R
WESTMINSTER*   CLEAR     54  43  66 NW10G20   29.91R

$$

MDZ501>502-240800-
WESTERN MARYLAND

CITY           SKY/WX    TMP DP  RH WIND       PRES   REMARKS
OAKLAND*       CLOUDY    41 N/A N/A W6        30.05R FOG
CUMBERLAND*    CLEAR     52  41  66 NW9G20    30.05S

$$

VAZ025>031-240800-
SHENANDOAH VALLEY

CITY           SKY/WX    TMP DP  RH WIND       PRES   REMARKS
WINCHESTER*    CLEAR     54  37  54 NW17      29.96F
FRONT ROYAL*   FAIR      52  41  66 CALM      29.96F
LURAY*         FAIR      52  43  71 SW5       29.99S
NEW MARKET*    FAIR      44  40  86 NW6       30.00F
STAUNTON*      CLEAR     39  36  87 CALM      30.02S
WAYNESBORO*    FAIR      46  38  73 CALM      30.00S

$$

WVZ021-048>050-054>055-240800-
EASTERN WEST VIRGINIA PANHANDLE

CITY           SKY/WX    TMP DP  RH WIND       PRES   REMARKS
MARTINSBURG    CLEAR     54  39  57 NW6       29.97S
PETERSBURG*    CLEAR     42  40  91 CALM      30.05R

$$

VAZ036>039-050-240800-
CENTRAL FOOTHILLS

CITY           SKY/WX    TMP DP  RH WIND       PRES   REMARKS
CHARLOTTESVILL CLEAR     55  40  56 NW7       29.97S
CULPEPER*      CLEAR     55  43  62 N3        29.96R
ORANGE*        CLEAR     45  41  87 S3        29.97S
GORDONSVILLE*  FAIR      46  42  84 CALM      29.96S
WARRENTON*     FAIR      55  47  76 W3        29.94S

$$

VAZ055>057-240800-
NORTH AND CENTRAL PIEDMONT

CITY           SKY/WX    TMP DP  RH WIND       PRES   REMARKS
FREDERICKSBRG* CLEAR     57  43  61 NW7       29.93F
STAFFORD*      CLEAR     51  41  68 NW6       29.97F

$$

NCZ024-NYZ072-PAZ021-071-VAZ022-071-240800-
OTHER REGIONAL OBSERVATIONS

CITY           SKY/WX    TMP DP  RH WIND       PRES   REMARKS
NEW YORK CITY  CLOUDY    52  42  69 MISG      29.80R
PHILADELPHIA   MOCLDY    55  44  66 NW12      29.83S
PITTSBURGH     PTCLDY    40  39  97 NW3       30.08S
ROANOKE        CLEAR     43  38  82 NW8       30.06F
RICHMOND       CLEAR     53  42  66 NW8       29.94F
RALEIGH        CLOUDY    49  41  74 NE5       30.00S

$$

ANZ530>537-240800-
MARINE OBSERVATIONS

STATION/POSITION TIME  TEMP    WIND        PRES
                       AIR SEA DIR/SP/G
                 (UTC) (F)     (DEG/KT/KT) (MB)
THOMAS PT LIGHT  0700   57 62  290/ 13/ 15 1013.0R
BALT KEY BRIDGE  0700   59     290/ 14/ 19 1011.2F
COVE POINT       0700   57     320/ 13/ 19 1012.0R
LEWISETTA        0700   56 60  290/  8/ 10 1012.2F
SOLOMONS ISLAND  0700      64                N/A
PINEY POINT      0700          330/ 22/ 25   N/A

$$




USA.gov is the U.S. government's official web portal to all federal, state and local government web resources and services.